sat.trackr.live / text

‹ back to catalog

STARLINK-30971

NORAD 58443 · 2023-183G

PAYLOAD ACTIVE UNKNOWN

§ Identity

Operator
Country
US
Launch date
2023-11-28
Launch site
AFETR
Launch vehicle
Mass (kg)
RCS (m²)

Purposes: comms

External: N2YO · Heavens-Above · Gunter

§ Orbital elements

Epoch: 2026-09-20T08:51:11.214720Z

Period
94.27 min
Inclination
43.0040°
Eccentricity
0.0001251
Mean motion
15.27572881 rev/d
Perigee alt
482.2 km
Apogee alt
483.9 km
Semi-major
6,861.2 km
B*
-5.6301e-6
RAAN
22.5399°
Arg perigee
275.8113°
Mean anomaly
84.2596°
Rev number
15,650

§ Raw data

STARLINK-309711 58443U 23183G   26263.36887980 -.00000417  00000+0 -56301-5 0  99922 58443  43.0040  22.5399 0001251 275.8113  84.2596 15.27572881156500

JSON: /api/v1/satellites/58443 · /tle

For live sub-satellite position, see the globe view (requires WebGL).

§ Visibility from observer

Set your observer location to see the next 7 days of passes ≥ 10°. The values pass through the URL so the page stays shareable.

No JS? Fill the form by hand. The geolocation button needs JavaScript.